Location: Breitenfeld
(46.8500°N, 15.6333°E)
Time: 08:44:01
(UTC+00:00)

Cosmos 2322 Rocket - Pass Details

Date: 09 April 2020
Orbit: 834 x 849 km, 71.0° (Epoch: 01 June)

Event Time Altitude Azimuth Distance (km) Brightness Sun altitude
Rises 21:35:32 0° 336° (NNW) 3,405 6.5 -32.1°
Reaches altitude 10° 21:38:07 10° 343° (NNW) 2,464 5.5 -32.3°
Enters shadow 21:42:30 40° 27° (NNE) 1,214 3.2 -32.6°
